Location: Bydgoszcz
(53.1640°N, 17.9142°E)
Time: 18:52:16
(UTC+02:00)

PCSat - Pass Details

Date: 18 April 2024
Orbit: 783 x 792 km, 67.1° (Epoch: 18 May)

Event Time Altitude Azimuth Distance (km) Brightness Sun altitude
Rises 23:16:31 0° 261° (W) 3,283 13.0 -22.7°
Reaches altitude 10° 23:19:15 10° 273° (W) 2,358 12.3 -22.9°
Maximum altitude 23:23:55 29° 333° (NNW) 1,438 11.6 -23.2°
Drops below altitude 10° 23:28:36 10° 32° (NNE) 2,369 12.5 -23.4°
Sets 23:31:22 0° 44° (NE) 3,302 13.1 -23.6°
